Location: Unspecified
(0.0000°N, 0.0000°E)
Time: 18:17:20
(UTC+00:00)

STARLINK 1042 - Pass Details

Date: 15 January 2020
Orbit: 548 x 551 km, 53.0° (Epoch: 17 January)

Event Time Altitude Azimuth Distance (km) Brightness Sun altitude
Rises 19:00:34 0° 331° (NNW) 2,700 7.3 -11.9°
Reaches altitude 10° 19:02:48 10° 334° (NNW) 1,810 6.3 -12.4°
Maximum altitude 19:06:53 66° 56° (NE) 598 3.5 -13.4°
Drops below altitude 10° 19:10:59 10° 139° (SE) 1,820 6.1 -14.3°
Sets 19:13:14 0° 141° (SE) 2,716 7.0 -14.9°
